,,Stat5,,Stat1,,Stat2,,Stat3,,Stat4,,Wind1,,Wind1,
time,status,PA1M_AVG,status,PR1M_SUM,status,RH1M_AVG,status,SR1M_AVG,status,TA1M_AVG,status,W1dAve1m,status,W1sAve1m,
2002-06-01, 00:00:01,VALID,918.757,VALID,0,VALID,97.307,VALID,-0.0679233,VALID,19.1943,VALID,139,VALID,1.55156,
2002-06-01, 00:01:00,VALID,918.743,VALID,0,VALID,97.1519,VALID,-0.0169808,VALID,19.2231,VALID,148,VALID,1.39757,
2002-06-01, 00:02:00,VALID,918.742,VALID,0,VALID,97.0692,VALID,-0.0509425,VALID,19.2425,VALID,151,VALID,1.67371,
2002-06-01, 00:03:00,VALID,918.722,VALID,0,VALID,96.9967,VALID,-0.0679233,VALID,19.2522,VALID,153,VALID,1.45313,
2002-06-01, 00:04:01,VALID,918.7,VALID,0,VALID,96.881,VALID,-0.0679233,VALID,19.2721,VALID,167,VALID,1.11719,
2002-06-01, 00:05:00,VALID,918.673,VALID,0,VALID,96.6966,VALID,-0.0679233,VALID,19.2425,VALID,158,VALID,1.2183,
2002-06-01, 00:06:00,VALID,918.674,VALID,0,VALID,96.5847,VALID,-0.0509425,VALID,19.2037,VALID,168,VALID,0.994336,
2002-06-01, 00:07:00,VALID,918.668,VALID,0,VALID,96.6216,VALID,-0.0679233,VALID,19.1816,VALID,172,VALID,1.0221,
2002-06-01, 00:08:00,VALID,918.667,VALID,0,VALID,96.7475,VALID,-0.0509425,VALID,19.1424,VALID,152,VALID,1.15326,
2002-06-01, 00:09:00,VALID,918.674,VALID,0,VALID,96.8886,VALID,-0.0339617,VALID,19.1091,VALID,164,VALID,0.739062,
2002-06-01, 00:10:01,VALID,918.682,VALID,0,VALID,96.9281,VALID,-0.0509425,VALID,19.0972,VALID,162,VALID,0.883523,
2002-06-01, 00:11:00,VALID,918.689,VALID,0,VALID,97.0005,VALID,-0.0339617,VALID,19.0683,VALID,155,VALID,1.30313,
2002-06-01, 00:12:00,VALID,918.681,VALID,0,VALID,97.1163,VALID,-0.0509425,VALID,19.0522,VALID,150,VALID,0.72207,
2002-06-01, 00:13:00,VALID,918.682,VALID,0,VALID,97.1277,VALID,-0.0509425,VALID,19.0259,VALID,167,VALID,0.909375,
2002-06-01, 00:14:00,VALID,918.67,VALID,0,VALID,97.1875,VALID,-0.0679233,VALID,19.0196,VALID,158,VALID,1.44784,
2002-06-01, 00:15:00,VALID,918.652,VALID,0,VALID,97.1926,VALID,-0.0169808,VALID,18.9933,VALID,156,VALID,1.4123,
2002-06-01, 00:16:01,VALID,918.642,VALID,0,VALID,97.2714,VALID,-0.0679233,VALID,18.9936,VALID,161,VALID,0.806345,
2002-06-01, 00:17:00,VALID,918.611,VALID,0,VALID,97.3019,VALID,-0.0169808,VALID,18.991,VALID,169,VALID,1.00826,
2002-06-01, 00:18:00,VALID,918.595,VALID,0,VALID,97.3057,VALID,-0.0169808,VALID,18.9811,VALID,168,VALID,0.777539,
2002-06-01, 00:19:00,VALID,918.583,VALID,0,VALID,97.2943,VALID,-0.0339617,VALID,18.9451,VALID,174,VALID,1.23482,
2002-06-01, 00:20:01,VALID,918.57,VALID,0,VALID,97.3146,VALID,-0.0509425,VALID,18.913,VALID,169,VALID,1.09812,
2002-06-01, 00:21:00,VALID,918.539,VALID,0,VALID,97.4075,VALID,-0.0509425,VALID,18.8937,VALID,174,VALID,1.35156,
2002-06-01, 00:22:01,VALID,918.529,VALID,0,VALID,97.5295,VALID,-0.0509425,VALID,18.8711,VALID,171,VALID,1.17401,
2002-06-01, 00:23:00,VALID,918.511,VALID,0,VALID,97.5956,VALID,-0.0169808,VALID,18.8616,VALID,147,VALID,1.02545,
2002-06-01, 00:24:00,VALID,918.487,VALID,0,VALID,97.6974,VALID,-0.0509425,VALID,18.8482,VALID,152,VALID,1.11582,
2002-06-01, 00:25:00,VALID,918.46,VALID,0,VALID,97.7813,VALID,-0.0339617,VALID,18.8353,VALID,150,VALID,1.08103,
2002-06-01, 00:26:01,VALID,918.43,VALID,0,VALID,97.8144,VALID,-0.0339617,VALID,18.839,VALID,156,VALID,1.19669,
2002-06-01, 00:27:00,VALID,918.42,VALID,0,VALID,97.8614,VALID,-0.0339617,VALID,18.8254,VALID,151,VALID,0.841797,
2002-06-01, 00:28:01,VALID,918.395,VALID,0,VALID,97.7838,VALID,-0.0509425,VALID,18.8095,VALID,146,VALID,0.379735,
2002-06-01, 00:29:00,VALID,918.365,VALID,0,VALID,97.7889,VALID,-0.0339617,VALID,18.767,VALID,147,VALID,0.490402,
2002-06-01, 00:30:00,VALID,918.322,VALID,0,VALID,97.9352,VALID,-0.0169808,VALID,18.7709,VALID,145,VALID,0.961523,
2002-06-01, 00:31:00,VALID,918.288,VALID,0,VALID,98.0852,VALID,-0.0339617,VALID,18.7931,VALID,148,VALID,1.16897,
2002-06-01, 00:32:01,VALID,918.249,VALID,0,VALID,98.0382,VALID,-0.0339617,VALID,18.8355,VALID,150,VALID,0.658318,
2002-06-01, 00:33:00,VALID,918.235,VALID,0,VALID,97.9695,VALID,-0.0679233,VALID,18.8418,VALID,143,VALID,0.436133,
2002-06-01, 00:34:01,VALID,918.226,VALID,0,VALID,97.9174,VALID,-0.0509425,VALID,18.8743,VALID,145,VALID,0.601089,
2002-06-01, 00:35:00,VALID,918.217,VALID,0,VALID,97.8818,VALID,-0.0509425,VALID,18.878,VALID,140,VALID,0.809598,
2002-06-01, 00:36:00,VALID,918.223,VALID,0,VALID,97.7838,VALID,-0.0339617,VALID,18.8842,VALID,102,VALID,0.245508,
2002-06-01, 00:37:00,VALID,918.217,VALID,0,VALID,97.6389,VALID,-0.0509425,VALID,18.8743,VALID,129,VALID,0.49375,
2002-06-01, 00:38:01,VALID,918.217,VALID,0,VALID,97.5956,VALID,-0.0849042,VALID,18.8683,VALID,102,VALID,0.630055,
2002-06-01, 00:39:00,VALID,918.195,VALID,0,VALID,97.6224,VALID,-0.0679233,VALID,18.8685,VALID,118,VALID,0.388867,
2002-06-01, 00:40:01,VALID,918.184,VALID,0,VALID,97.602,VALID,0.0339617,VALID,18.8696,VALID,116,VALID,0.376894,
2002-06-01, 00:41:01,VALID,918.171,VALID,0,VALID,97.5906,VALID,0.0339617,VALID,18.8699,VALID,111,VALID,0.752902,
2002-06-01, 00:42:01,VALID,918.154,VALID,0,VALID,97.6007,VALID,0.0339617,VALID,18.8959,VALID,124,VALID,0.758789,
2002-06-01, 00:43:00,VALID,918.131,VALID,0,VALID,97.4456,VALID,0.0679233,VALID,18.8853,VALID,124,VALID,0.991964,
2002-06-01, 00:44:01,VALID,918.136,VALID,0,VALID,97.4621,VALID,0.0679233,VALID,18.9215,VALID,138,VALID,1.06319,
2002-06-01, 00:45:00,VALID,918.13,VALID,0,VALID,97.4609,VALID,0.0339617,VALID,18.9605,VALID,148,VALID,1.31484,
2002-06-01, 00:46:01,VALID,918.127,VALID,0,VALID,97.2638,VALID,0.0849042,VALID,18.9926,VALID,160,VALID,0.974669,
2002-06-01, 00:47:01,VALID,918.138,VALID,0,VALID,97.0387,VALID,0.0509425,VALID,18.9956,VALID,155,VALID,0.799777,
2002-06-01, 00:48:01,VALID,918.155,VALID,0,VALID,96.8925,VALID,0.0339617,VALID,18.9854,VALID,163,VALID,0.804492,
2002-06-01, 00:49:00,VALID,918.152,VALID,0,VALID,96.9509,VALID,0.0509425,VALID,18.9991,VALID,154,VALID,1.03103,
2002-06-01, 00:50:01,VALID,918.15,VALID,0,VALID,96.8785,VALID,0.101885,VALID,18.9859,VALID,149,VALID,1.07399,
2002-06-01, 00:51:00,VALID,918.123,VALID,0,VALID,96.8848,VALID,0.0849042,VALID,18.9735,VALID,167,VALID,0.511523,
2002-06-01, 00:52:01,VALID,918.116,VALID,0,VALID,96.8187,VALID,0.0509425,VALID,18.9347,VALID,162,VALID,0.979403,
2002-06-01, 00:53:00,VALID,918.093,VALID,0,VALID,96.7411,VALID,0.0509425,VALID,18.8858,VALID,154,VALID,0.700893,
2002-06-01, 00:54:00,VALID,918.076,VALID,0,VALID,96.8238,VALID,0.0339617,VALID,18.8408,VALID,157,VALID,0.863281,
2002-06-01, 00:55:00,VALID,918.059,VALID,0,VALID,96.9103,VALID,-0.0509425,VALID,18.8005,VALID,167,VALID,0.815402,
2002-06-01, 00:56:01,VALID,918.045,VALID,0,VALID,97.0374,VALID,-0.0849042,VALID,18.7518,VALID,158,VALID,1.00483,
2002-06-01, 00:57:00,VALID,918.035,VALID,0,VALID,97.246,VALID,-0.0849042,VALID,18.7163,VALID,167,VALID,1.3377,
2002-06-01, 00:58:01,VALID,918.039,VALID,0,VALID,97.3935,VALID,-0.0679233,VALID,18.6904,VALID,164,VALID,1.21993,
2002-06-01, 00:59:01,VALID,918.043,VALID,0,VALID,97.3998,VALID,-0.0679233,VALID,18.6487,VALID,158,VALID,0.957812,
2002-06-01, 01:00:01,VALID,918.044,VALID,0,VALID,97.6694,VALID,-0.0849042,VALID,18.6196,VALID,155,VALID,1.68262,
2002-06-01, 01:01:00,VALID,918.037,VALID,0,VALID,97.9008,VALID,-0.0679233,VALID,18.6164,VALID,154,VALID,1.4317,
2002-06-01, 01:02:01,VALID,918.04,VALID,0,VALID,98.0738,VALID,-0.101885,VALID,18.6065,VALID,146,VALID,1.57721,
2002-06-01, 01:03:00,VALID,918.027,VALID,0,VALID,98.2505,VALID,-0.0679233,VALID,18.636,VALID,152,VALID,1.61367,
2002-06-01, 01:04:01,VALID,918.013,VALID,0,VALID,98.3306,VALID,-0.0339617,VALID,18.6514,VALID,152,VALID,1.52273,
2002-06-01, 01:05:01,VALID,917.995,VALID,0,VALID,98.295,VALID,-0.0849042,VALID,18.6678,VALID,152,VALID,1.70982,
2002-06-01, 01:06:01,VALID,917.958,VALID,0,VALID,98.3395,VALID,-0.0679233,VALID,18.6939,VALID,146,VALID,1.88262,
2002-06-01, 01:07:00,VALID,917.927,VALID,0,VALID,98.3484,VALID,-0.0339617,VALID,18.7294,VALID,141,VALID,2.02321,
2002-06-01, 01:08:01,VALID,917.893,VALID,0,VALID,98.281,VALID,-0.0849042,VALID,18.7714,VALID,146,VALID,2.24012,
2002-06-01, 01:09:00,VALID,917.871,VALID,0,VALID,98.1628,VALID,-0.0679233,VALID,18.8139,VALID,141,VALID,2.26797,
2002-06-01, 01:10:01,VALID,917.844,VALID,0,VALID,98.014,VALID,0,VALID,18.8445,VALID,143,VALID,2.19579,
2002-06-01, 01:11:00,VALID,917.826,VALID,0,VALID,97.8678,VALID,0,VALID,18.8567,VALID,138,VALID,2.28192,
2002-06-01, 01:12:00,VALID,917.785,VALID,0,VALID,97.7292,VALID,0.0169808,VALID,18.8897,VALID,148,VALID,2.10625,
2002-06-01, 01:13:00,VALID,917.735,VALID,0,VALID,97.574,VALID,0.0339617,VALID,18.8992,VALID,140,VALID,2.31518,
2002-06-01, 01:14:01,VALID,917.707,VALID,0,VALID,97.424,VALID,0.0509425,VALID,18.9218,VALID,139,VALID,1.7716,
2002-06-01, 01:15:00,VALID,917.675,VALID,0,VALID,97.3324,VALID,0.0339617,VALID,18.9218,VALID,147,VALID,2.21992,
2002-06-01, 01:16:01,VALID,917.632,VALID,0,VALID,97.2994,VALID,0.0339617,VALID,18.9476,VALID,150,VALID,2.50971,
2002-06-01, 01:17:01,VALID,917.622,VALID,0,VALID,97.1519,VALID,0.0169808,VALID,18.9702,VALID,146,VALID,2.06741,
2002-06-01, 01:18:01,VALID,917.6,VALID,0,VALID,96.9865,VALID,0.0339617,VALID,18.9931,VALID,151,VALID,1.74199,
2002-06-01, 01:19:00,VALID,917.595,VALID,0,VALID,96.9548,VALID,0.0509425,VALID,18.9894,VALID,147,VALID,2.35246,
2002-06-01, 01:20:01,VALID,917.582,VALID,0,VALID,96.8899,VALID,0.0339617,VALID,19.0157,VALID,140,VALID,2.36144,
2002-06-01, 01:21:00,VALID,917.58,VALID,0,VALID,96.7958,VALID,0.0509425,VALID,19.0383,VALID,144,VALID,1.8291,
2002-06-01, 01:22:01,VALID,917.577,VALID,0,VALID,96.6966,VALID,0.0679233,VALID,19.0381,VALID,141,VALID,1.93868,
2002-06-01, 01:23:01,VALID,917.548,VALID,0,VALID,96.5847,VALID,0.0169808,VALID,19.0574,VALID,126,VALID,1.43996,
2002-06-01, 01:24:01,VALID,917.548,VALID,0,VALID,96.511,VALID,0.0169808,VALID,19.057,VALID,138,VALID,1.37891,
2002-06-01, 01:25:00,VALID,917.516,VALID,0,VALID,96.4614,VALID,0,VALID,19.0736,VALID,149,VALID,1.71808,
2002-06-01, 01:26:01,VALID,917.469,VALID,0,VALID,96.3864,VALID,0.0169808,VALID,19.0835,VALID,143,VALID,1.71232,
2002-06-01, 01:27:00,VALID,917.437,VALID,0,VALID,96.324,VALID,0.0169808,VALID,19.0768,VALID,147,VALID,1.3627,
2002-06-01, 01:28:01,VALID,917.398,VALID,0,VALID,96.2948,VALID,0,VALID,19.0639,VALID,135,VALID,1.01042,
2002-06-01, 01:29:00,VALID,917.356,VALID,0,VALID,96.2973,VALID,0.0679233,VALID,19.0477,VALID,136,VALID,0.9125,
2002-06-01, 01:30:01,VALID,917.362,VALID,0,VALID,96.3266,VALID,0.0679233,VALID,19.0217,VALID,118,VALID,0.910156,
2002-06-01, 01:31:00,VALID,917.339,VALID,0,VALID,96.4029,VALID,0.0679233,VALID,18.9894,VALID,118,VALID,1.03192,
2002-06-01, 01:32:01,VALID,917.327,VALID,0,VALID,96.5466,VALID,0.0679233,VALID,18.9797,VALID,113,VALID,1.11903,
2002-06-01, 01:33:01,VALID,917.324,VALID,0,VALID,96.5504,VALID,0.101885,VALID,18.9633,VALID,135,VALID,1.04512,
2002-06-01, 01:34:01,VALID,917.322,VALID,0,VALID,96.6292,VALID,0.0679233,VALID,18.9305,VALID,134,VALID,1.23722,
2002-06-01, 01:35:01,VALID,917.311,VALID,0,VALID,96.7208,VALID,0.0679233,VALID,18.9275,VALID,151,VALID,1.36362,
2002-06-01, 01:36:01,VALID,917.314,VALID,0,VALID,96.7348,VALID,0.0849042,VALID,18.9139,VALID,152,VALID,0.936328,
2002-06-01, 01:37:00,VALID,917.31,VALID,0,VALID,96.7093,VALID,0.0849042,VALID,18.889,VALID,162,VALID,0.900446,
2002-06-01, 01:38:01,VALID,917.307,VALID,0,VALID,96.7818,VALID,0.101885,VALID,18.8666,VALID,166,VALID,0.957491,
2002-06-01, 01:39:01,VALID,917.313,VALID,0,VALID,96.839,VALID,0.0849042,VALID,18.8274,VALID,166,VALID,0.994141,
2002-06-01, 01:40:01,VALID,917.318,VALID,0,VALID,96.9281,VALID,0,VALID,18.7991,VALID,159,VALID,0.776515,
2002-06-01, 01:41:01,VALID,917.313,VALID,0,VALID,96.998,VALID,0,VALID,18.7573,VALID,153,VALID,1.14777,
2002-06-01, 01:42:01,VALID,917.31,VALID,0,VALID,96.984,VALID,0,VALID,18.7282,VALID,66,VALID,0.635938,
2002-06-01, 01:43:01,VALID,917.319,VALID,0,VALID,97.0044,VALID,0,VALID,18.6639,VALID,55,VALID,0.620982,
2002-06-01, 01:44:01,VALID,917.322,VALID,0,VALID,97.2002,VALID,0,VALID,18.6475,VALID,67,VALID,0.205193,
2002-06-01, 01:45:01,VALID,917.293,VALID,0,VALID,97.3986,VALID,0,VALID,18.6348,VALID,132,VALID,0.920313,
2002-06-01, 01:46:01,VALID,917.272,VALID,0,VALID,97.3744,VALID,0,VALID,18.6251,VALID,56,VALID,0.495265,
2002-06-01, 01:47:01,VALID,917.276,VALID,0,VALID,97.3579,VALID,0,VALID,18.6062,VALID,95,VALID,0.31808,
2002-06-01, 01:48:01,VALID,917.279,VALID,0,VALID,97.4265,VALID,0,VALID,18.5836,VALID,58,VALID,0.811719,
2002-06-01, 01:49:01,VALID,917.297,VALID,0,VALID,97.3134,VALID,-0.0169808,VALID,18.5377,VALID,43,VALID,0.825446,
2002-06-01, 01:50:01,VALID,917.323,VALID,0,VALID,97.335,VALID,0,VALID,18.5128,VALID,32,VALID,0.642233,
2002-06-01, 01:51:01,VALID,917.334,VALID,0,VALID,97.3744,VALID,0.0169808,VALID,18.4837,VALID,47,VALID,0.771289,
2002-06-01, 01:52:01,VALID,917.369,VALID,0,VALID,97.6058,VALID,-0.0169808,VALID,18.4798,VALID,69,VALID,0.657197,
2002-06-01, 01:53:01,VALID,917.384,VALID,0,VALID,97.705,VALID,0,VALID,18.483,VALID,74,VALID,0.549777,
2002-06-01, 01:54:01,VALID,917.401,VALID,0,VALID,97.6872,VALID,-0.0169808,VALID,18.4669,VALID,80,VALID,0.573633,
2002-06-01, 01:55:01,VALID,917.397,VALID,0,VALID,97.7165,VALID,-0.0169808,VALID,18.4512,VALID,84,VALID,0.407589,
2002-06-01, 01:56:01,VALID,917.389,VALID,0,VALID,97.8538,VALID,-0.0339617,VALID,18.4704,VALID,92,VALID,0.491728,
2002-06-01, 01:57:01,VALID,917.387,VALID,0,VALID,97.6427,VALID,-0.0339617,VALID,18.4284,VALID,31,VALID,0.399805,
2002-06-01, 01:58:01,VALID,917.377,VALID,0,VALID,97.7317,VALID,0,VALID,18.4125,VALID,79,VALID,0.471354,
2002-06-01, 01:59:01,VALID,917.373,VALID,0,VALID,98.0789,VALID,0,VALID,18.4639,VALID,138,VALID,0.648884,
2002-06-01, 02:00:01,VALID,917.383,VALID,0,VALID,98.0611,VALID,-0.0169808,VALID,18.5061,VALID,136,VALID,0.296289,
2002-06-01, 02:01:01,VALID,917.378,VALID,0,VALID,98.1056,VALID,0,VALID,18.5386,VALID,148,VALID,0.660714,
2002-06-01, 02:02:01,VALID,917.376,VALID,0,VALID,98.0878,VALID,0,VALID,18.5709,VALID,84,VALID,0.658318,
2002-06-01, 02:03:01,VALID,917.371,VALID,0,VALID,97.9631,VALID,-0.0169808,VALID,18.564,VALID,77,VALID,0.324023,
2002-06-01, 02:04:01,VALID,917.364,VALID,0,VALID,97.8576,VALID,0,VALID,18.5608,VALID,80,VALID,0.361506,
2002-06-01, 02:05:01,VALID,917.321,VALID,0,VALID,97.9278,VALID,0,VALID,18.5675,VALID,102,VALID,0.587776,
2002-06-01, 02:06:01,VALID,917.321,VALID,0,VALID,97.8004,VALID,-0.0169808,VALID,18.5679,VALID,45,VALID,0.75293,
2002-06-01, 02:07:01,VALID,917.306,VALID,0,VALID,97.4494,VALID,0,VALID,18.5029,VALID,27,VALID,0.711607,
2002-06-01, 02:08:01,VALID,917.29,VALID,0,VALID,97.2383,VALID,-0.0169808,VALID,18.442,VALID,26,VALID,0.909697,
2002-06-01, 02:09:00,VALID,917.279,VALID,0,VALID,97.1213,VALID,-0.0169808,VALID,18.3804,VALID,32,VALID,0.819141,
2002-06-01, 02:10:00,VALID,917.269,VALID,0,VALID,97.0234,VALID,0,VALID,18.2925,VALID,32,VALID,0.892282,
2002-06-01, 02:11:00,VALID,917.254,VALID,0,VALID,97.3299,VALID,0,VALID,18.284,VALID,32,VALID,1.18125,
2002-06-01, 02:12:00,VALID,917.258,VALID,0,VALID,97.7355,VALID,0,VALID,18.2962,VALID,39,VALID,1.33965,
2002-06-01, 02:13:00,VALID,917.252,VALID,0,VALID,98.0165,VALID,-0.0169808,VALID,18.3513,VALID,44,VALID,0.897321,
2002-06-01, 02:14:00,VALID,917.249,VALID,0,VALID,97.9453,VALID,0,VALID,18.3417,VALID,47,VALID,0.884421,
2002-06-01, 02:15:00,VALID,917.223,VALID,0,VALID,97.8029,VALID,-0.0169808,VALID,18.2898,VALID,40,VALID,1.25664,
2002-06-01, 02:16:00,VALID,917.221,VALID,0,VALID,97.8716,VALID,-0.0339617,VALID,18.2642,VALID,50,VALID,1.07647,
2002-06-01, 02:17:00,VALID,917.212,VALID,0,VALID,97.9682,VALID,-0.0169808,VALID,18.2545,VALID,46,VALID,1.19866,
2002-06-01, 02:18:00,VALID,917.201,VALID,0,VALID,98.0687,VALID,0,VALID,18.2542,VALID,56,VALID,1.0873,
2002-06-01, 02:19:00,VALID,917.184,VALID,0,VALID,98.1552,VALID,0.0169808,VALID,18.2669,VALID,59,VALID,1.18906,
2002-06-01, 02:20:00,VALID,917.182,VALID,0,VALID,98.3217,VALID,0,VALID,18.2861,VALID,69,VALID,1.43313,
2002-06-01, 02:21:00,VALID,917.162,VALID,0,VALID,98.4158,VALID,0,VALID,18.3442,VALID,69,VALID,1.43984,
2002-06-01, 02:22:00,VALID,917.132,VALID,0,VALID,98.3192,VALID,0,VALID,18.3806,VALID,84,VALID,1.5,
2002-06-01, 02:23:00,VALID,917.114,VALID,0,VALID,98.2442,VALID,-0.0169808,VALID,18.4256,VALID,94,VALID,1.22143,
2002-06-01, 02:24:00,VALID,917.088,VALID,0,VALID,98.2556,VALID,-0.0169808,VALID,18.4644,VALID,92,VALID,1.34766,
2002-06-01, 02:25:00,VALID,917.065,VALID,0,VALID,98.1412,VALID,-0.0339617,VALID,18.522,VALID,93,VALID,1.5442,
2002-06-01, 02:26:00,VALID,917.044,VALID,0,VALID,98.0204,VALID,0,VALID,18.6,VALID,96,VALID,1.43934,
2002-06-01, 02:27:00,VALID,917.013,VALID,0,VALID,97.8233,VALID,-0.0169808,VALID,18.6837,VALID,90,VALID,1.08594,
2002-06-01, 02:28:00,VALID,917,VALID,0,VALID,97.4558,VALID,-0.0169808,VALID,18.7096,VALID,95,VALID,0.866951,
2002-06-01, 02:29:00,VALID,916.995,VALID,0,VALID,97.3019,VALID,0,VALID,18.7553,VALID,117,VALID,1.35826,
2002-06-01, 02:30:00,VALID,916.995,VALID,0,VALID,97.0438,VALID,0,VALID,18.7841,VALID,114,VALID,0.594727,
2002-06-01, 02:31:00,VALID,916.995,VALID,0,VALID,96.8683,VALID,0,VALID,18.797,VALID,97,VALID,1.19375,
2002-06-01, 02:32:00,VALID,917.015,VALID,0,VALID,96.7513,VALID,0,VALID,18.8097,VALID,96,VALID,1.1489,
2002-06-01, 02:33:00,VALID,917.003,VALID,0,VALID,96.6458,VALID,0,VALID,18.8164,VALID,106,VALID,0.437695,
2002-06-01, 02:34:00,VALID,917.021,VALID,0,VALID,96.5275,VALID,0,VALID,18.8194,VALID,103,VALID,0.29072,
2002-06-01, 02:35:00,VALID,917.028,VALID,0,VALID,96.5033,VALID,-0.0169808,VALID,18.7968,VALID,105,VALID,0.511161,
2002-06-01, 02:36:00,VALID,917.038,VALID,0,VALID,96.5885,VALID,0,VALID,18.794,VALID,75,VALID,0.843164,
2002-06-01, 02:37:00,VALID,917.03,VALID,0,VALID,96.4042,VALID,0,VALID,18.7774,VALID,84,VALID,0.688393,
2002-06-01, 02:38:00,VALID,917.02,VALID,0,VALID,96.5771,VALID,0,VALID,18.7645,VALID,97,VALID,0.924862,
2002-06-01, 02:39:00,VALID,917.012,VALID,0,VALID,96.5898,VALID,0,VALID,18.7772,VALID,101,VALID,0.938867,
2002-06-01, 02:40:00,VALID,917.006,VALID,0,VALID,96.544,VALID,0,VALID,18.7746,VALID,139,VALID,0.930398,
2002-06-01, 02:41:00,VALID,916.983,VALID,0,VALID,96.6013,VALID,-0.0509425,VALID,18.7675,VALID,141,VALID,0.908929,
2002-06-01, 02:42:00,VALID,916.972,VALID,0,VALID,96.5796,VALID,-0.0169808,VALID,18.7679,VALID,142,VALID,1.09766,
2002-06-01, 02:43:00,VALID,916.963,VALID,0,VALID,96.6241,VALID,-0.0339617,VALID,18.7324,VALID,139,VALID,1.22076,
2002-06-01, 02:44:00,VALID,916.975,VALID,0,VALID,96.6674,VALID,-0.0679233,VALID,18.6939,VALID,141,VALID,1.14154,
2002-06-01, 02:45:00,VALID,916.97,VALID,0,VALID,96.7996,VALID,-0.0679233,VALID,18.6132,VALID,129,VALID,0.847656,
2002-06-01, 02:46:00,VALID,916.967,VALID,0,VALID,97.026,VALID,-0.101885,VALID,18.555,VALID,113,VALID,0.727746,
2002-06-01, 02:47:00,VALID,916.955,VALID,0,VALID,97.2879,VALID,-0.0679233,VALID,18.5061,VALID,114,VALID,0.947098,
2002-06-01, 02:48:00,VALID,916.939,VALID,0,VALID,97.4761,VALID,-0.0849042,VALID,18.4614,VALID,134,VALID,1.01582,
2002-06-01, 02:49:00,VALID,916.945,VALID,0,VALID,97.6529,VALID,-0.0339617,VALID,18.4233,VALID,129,VALID,0.962277,
2002-06-01, 02:50:00,VALID,916.955,VALID,0,VALID,97.766,VALID,-0.0849042,VALID,18.364,VALID,127,VALID,0.678768,
2002-06-01, 02:51:00,VALID,916.949,VALID,0,VALID,97.9848,VALID,-0.0339617,VALID,18.3253,VALID,126,VALID,0.827148,
2002-06-01, 02:52:00,VALID,916.954,VALID,0,VALID,98.192,VALID,-0.0679233,VALID,18.3126,VALID,125,VALID,1.1089,
2002-06-01, 02:53:00,VALID,916.961,VALID,0,VALID,98.3434,VALID,-0.0339617,VALID,18.3031,VALID,122,VALID,1.07366,
2002-06-01, 02:54:00,VALID,916.956,VALID,0,VALID,98.4705,VALID,-0.0679233,VALID,18.2964,VALID,130,VALID,0.930273,
2002-06-01, 02:55:00,VALID,916.965,VALID,0,VALID,98.5913,VALID,-0.0169808,VALID,18.3029,VALID,127,VALID,1.05871,
2002-06-01, 02:56:00,VALID,916.953,VALID,0,VALID,98.6638,VALID,-0.0849042,VALID,18.3064,VALID,139,VALID,1.00965,
2002-06-01, 02:57:00,VALID,916.951,VALID,0,VALID,98.6854,VALID,-0.0509425,VALID,18.316,VALID,129,VALID,1.03281,
2002-06-01, 02:58:00,VALID,916.949,VALID,0,VALID,98.7083,VALID,-0.0849042,VALID,18.3124,VALID,126,VALID,0.951231,
2002-06-01, 02:59:00,VALID,916.951,VALID,0,VALID,98.7452,VALID,-0.0509425,VALID,18.3223,VALID,123,VALID,1.00312,
2002-06-01, 03:00:00,VALID,916.94,VALID,0,VALID,98.7312,VALID,-0.0679233,VALID,18.335,VALID,111,VALID,1.12988,
2002-06-01, 03:01:00,VALID,916.95,VALID,0,VALID,98.6765,VALID,-0.0679233,VALID,18.3354,VALID,120,VALID,0.89442,
2002-06-01, 03:02:00,VALID,916.938,VALID,0,VALID,98.6867,VALID,-0.0679233,VALID,18.3322,VALID,109,VALID,1.2847,
2002-06-01, 03:03:00,VALID,916.935,VALID,0,VALID,98.6587,VALID,-0.0509425,VALID,18.3481,VALID,114,VALID,1.07305,
2002-06-01, 03:04:00,VALID,916.934,VALID,0,VALID,98.6638,VALID,-0.0509425,VALID,18.3548,VALID,113,VALID,0.986506,
2002-06-01, 03:05:00,VALID,916.937,VALID,0,VALID,98.5951,VALID,-0.0679233,VALID,18.3809,VALID,138,VALID,0.711384,
2002-06-01, 03:06:00,VALID,916.942,VALID,0,VALID,98.5468,VALID,-0.0679233,VALID,18.3839,VALID,116,VALID,0.940625,
2002-06-01, 03:07:00,VALID,916.94,VALID,0,VALID,98.4985,VALID,-0.0679233,VALID,18.3774,VALID,108,VALID,0.893973,
2002-06-01, 03:08:00,VALID,916.941,VALID,0,VALID,98.4998,VALID,-0.101885,VALID,18.3936,VALID,117,VALID,0.994485,
2002-06-01, 03:09:00,VALID,916.932,VALID,0,VALID,98.4909,VALID,-0.101885,VALID,18.4261,VALID,121,VALID,1.00488,
2002-06-01, 03:10:00,VALID,916.935,VALID,0,VALID,98.44,VALID,-0.0679233,VALID,18.4291,VALID,115,VALID,0.484848,
2002-06-01, 03:11:00,VALID,916.933,VALID,0,VALID,98.4603,VALID,-0.0509425,VALID,18.4547,VALID,123,VALID,0.791741,
2002-06-01, 03:12:00,VALID,916.925,VALID,0,VALID,98.4578,VALID,-0.0509425,VALID,18.4807,VALID,120,VALID,0.934961,
2002-06-01, 03:13:00,VALID,916.92,VALID,0,VALID,98.4095,VALID,-0.0849042,VALID,18.5165,VALID,121,VALID,0.769196,
2002-06-01, 03:14:00,VALID,916.898,VALID,0,VALID,98.2874,VALID,-0.0849042,VALID,18.5193,VALID,135,VALID,0.714614,
2002-06-01, 03:15:00,VALID,916.899,VALID,0,VALID,98.1615,VALID,-0.101885,VALID,18.5195,VALID,135,VALID,0.665039,
2002-06-01, 03:16:00,VALID,916.904,VALID,0,VALID,98.0305,VALID,-0.0679233,VALID,18.4939,VALID,159,VALID,0.828362,
2002-06-01, 03:17:00,VALID,916.888,VALID,0,VALID,97.9733,VALID,-0.0339617,VALID,18.4549,VALID,168,VALID,0.970982,
2002-06-01, 03:18:00,VALID,916.893,VALID,0,VALID,98.042,VALID,-0.0679233,VALID,18.4383,VALID,161,VALID,0.902734,
2002-06-01, 03:19:00,VALID,916.882,VALID,0,VALID,98.1068,VALID,-0.0339617,VALID,18.442,VALID,156,VALID,1.05915,
2002-06-01, 03:20:00,VALID,916.896,VALID,0,VALID,98.1221,VALID,-0.0169808,VALID,18.4385,VALID,152,VALID,1.15694,
2002-06-01, 03:21:00,VALID,916.912,VALID,0,VALID,98.1526,VALID,-0.0339617,VALID,18.4411,VALID,157,VALID,1.425,
2002-06-01, 03:22:00,VALID,916.917,VALID,0,VALID,98.1297,VALID,-0.0169808,VALID,18.4542,VALID,148,VALID,1.04735,
2002-06-01, 03:23:00,VALID,916.938,VALID,0,VALID,98.0623,VALID,-0.0339617,VALID,18.451,VALID,147,VALID,0.955804,
2002-06-01, 03:24:00,VALID,916.953,VALID,0,VALID,98.117,VALID,-0.0339617,VALID,18.4611,VALID,136,VALID,0.897656,
2002-06-01, 03:25:00,VALID,916.984,VALID,0,VALID,97.9975,VALID,-0.0509425,VALID,18.4478,VALID,151,VALID,0.928125,
2002-06-01, 03:26:00,VALID,917.006,VALID,0,VALID,97.9924,VALID,-0.0679233,VALID,18.4475,VALID,129,VALID,0.900046,
2002-06-01, 03:27:00,VALID,917.021,VALID,0,VALID,97.9148,VALID,-0.0509425,VALID,18.4485,VALID,147,VALID,0.671094,
2002-06-01, 03:28:00,VALID,917.037,VALID,0,VALID,97.9759,VALID,-0.0679233,VALID,18.4616,VALID,153,VALID,0.531723,
2002-06-01, 03:29:00,VALID,917.058,VALID,0,VALID,97.747,VALID,-0.0679233,VALID,18.4132,VALID,45,VALID,0.876339,
2002-06-01, 03:30:00,VALID,917.06,VALID,0,VALID,97.7381,VALID,-0.0849042,VALID,18.3774,VALID,91,VALID,0.463477,
2002-06-01, 03:31:00,VALID,917.072,VALID,0,VALID,97.7343,VALID,-0.0849042,VALID,18.3654,VALID,68,VALID,0.768973,
2002-06-01, 03:32:00,VALID,917.072,VALID,0,VALID,97.6758,VALID,-0.0849042,VALID,18.293,VALID,94,VALID,0.85386,